662  
ASUS42 KCAE 210810  
RWRCAE  
REGIONAL WEATHER ROUNDUP  
NATIONAL WEATHER SERVICE COLUMBIA SC  
400 AM EDT FRI JUN 21 2024  
 
NOTE: "FAIR" INDICATES FEW OR NO CLOUDS BELOW 12,000 FEET WITH NO  
SIGNIFICANT WEATHER AND/OR S TO VISIBILITY
.  
 
NOT ALL STATIONS ARE QUALITY CONTROLLED BY THE NATIONAL  
WEATHER SERVICE. USE DATA WITH CAUTION...ESPECIALLY  
DEWPOINT OBSERVATIONS.  
 
SCZ001>059-115-116-135>137-GAZ040-063>065-077-210900-   
..UPSTATE SOUTH CAROLINA
 
 
 
CITY SKY/WX TMP DP RH WIND PRES REMARKS
 
ANDERSON CLEAR 68 62 81 E5 30.25R  
LIBERTY CLEAR 64 64 100 CALM 30.25F  
SPARTANBURG CLEAR 68 63 83 CALM 30.26S  
CLEMSON CLEAR 71 69 93 CALM 30.26S  
GREENVILLE CLEAR 71 63 75 N6 30.26F  
GREENWOOD CLEAR 65 63 93 CALM 30.26S  
GREER CLEAR 67 63 87 NE3 30.26F  
LAURENS CLEAR 63 61 94 CALM 30.26R FOG  
 
   
..CENTRAL SOUTH CAROLINA
 
 
 
CITY SKY/WX TMP DP RH WIND PRES REMARKS
 
COLUMBIA APT CLEAR 71 64 78 CALM 30.23S  
COLUMBIA OWENS CLEAR 71 64 78 CALM 30.24F  
MCENTIRE ANGB CLEAR 66 63 90 CALM 30.21F  
ORANGEBURG CLEAR 70 67 90 NE5 30.22F  
SUMTER SHAW CLEAR 67 64 87 NE6 30.21F  
AIKEN CLEAR 65 61 86 NE3 30.25F  
BARNWELL CLEAR 66 63 88 CALM 30.22F  
MANNING CLEAR 64 63 94 NE3 30.22F  
CAMDEN N/A 66 63 88 CALM 30.25F  
LANCASTER CLEAR 68 63 83 CALM 30.26S  
WINNSBORO CLEAR 70 63 78 E3 30.25S  
 
   
..EASTERN AND COASTAL SOUTH CAROLINA
 
 
 
CITY SKY/WX TMP DP RH WIND PRES REMARKS
 
MYRTLE BEACH CLEAR 77 69 76 VRB6 30.21F  
N MYRTLE BCH CLEAR 70 65 84 NE5 30.21F  
CONWAY CLEAR 64 63 94 CALM 30.22F  
MARION CLEAR 66 66 100 CALM 30.24F  
HARTSVILLE N/A 64 63 94 CALM 30.24F  
FLORENCE CLEAR 68 66 93 NE6 30.24F  
DARLINGTON CLEAR 66 64 93 N3 30.25F  
CHARLESTON APT CLEAR 73 68 84 NE8 30.17F  
MOUNT PLEASANT PTCLDY 72 72 100 CALM 30.17F  
WALTERBORO CLEAR 68 66 94 N3 30.20F  
BEAUFORT CLEAR 73 69 87 NE7 30.17F  
HILTON HEAD PTCLDY 75 72 88 NE12 30.16F  
 
   
..EASTERN GEORGIA
 
 
 
CITY SKY/WX TMP DP RH WIND PRES REMARKS
 
AUGUSTA BUSH F CLEAR 66 64 93 CALM 30.20F  
AUGUSTA DANIEL CLEAR 73 64 73 E5 30.23F  
THOMSON CLEAR 67 63 86 CALM 30.23F  
WASHINGTON CLEAR 69 63 81 S3 30.24F  
CLAXTON CLEAR 67 65 94 CALM 30.18F  
SYLVANIA CLEAR 70 69 96 CALM 30.20F  
STATESBORO CLEAR 68 65 89 CALM 30.19F  
SAVANNAH CLEAR 71 67 87 N6 30.16F  
 
   
..SOUTHERN NORTH CAROLINA
 
 
 
CITY SKY/WX TMP DP RH WIND PRES REMARKS
 
CHARLOTTE CLEAR 72 62 71 SE3 30.27S  
MONROE CLEAR 67 63 87 CALM 30.26S  
WADESBORO CLEAR 65 63 91 CALM 30.26S  
ROCKINGHAM CLEAR 67 62 83 CALM 30.26F  
RUTHERFORDTON CLEAR 64 64 100 CALM 30.29S  
ASHEVILLE CLEAR 64 62 93 CALM 30.34S  
 

 
 
 
CLICK HERE TO GO TO PREVIOUS BULLETINS.

The Nexlab SC Page
The Nexlab GA Page Main Text Page